Nebraska City, NE

2:41 PM CST on December 03, 2016 (GMT -0600)
Nebraska City Municipal

Weather History for KAFK - February, 2013

Change the Weather History Date:

Sunday, February 3, 2013

  Actual Average (KSDA) Record (KSDA)
Temperature  
Mean Temperature 33 °F -  
Max Temperature 43 °F 33 °F 68 °F (1992)
Min Temperature 23 °F 12 °F -19 °F (1981)
Degree Days  
Heating Degree Days 32    
Moisture  
Dew Point 24 °F    
Average Humidity 65    
Maximum Humidity 75    
Minimum Humidity 50    
Precipitation  
Precipitation 0.00 in - - ()
Sea Level Pressure  
Sea Level Pressure 30.06 in    
Wind  
Wind Speed 10 mph (West)    
Max Wind Speed 25 mph    
Max Gust Speed 31 mph    
Visibility 10 miles    
Events      
Averages and records for this station are not official NWS values.
T = Trace of Precipitation, MM = Missing Value Source: NWS Daily Summary

Daily Weather History Graph

Daily Weather History Graph

Search for Another Location

Airport or City:

Trip Planner

Search our weather history database for the weather conditions in past years. The results will help you decide how hot, cold, wet, or windy it might be!

Date:

Astronomy

Feb. 03, 2013 Rise Set
Actual Time 7:30 AM CST 5:44 PM CST
Civil Twilight 7:02 AM CST 6:12 PM CST
Nautical Twilight 6:29 AM CST 6:45 PM CST
Astronomical Twilight 5:57 AM CST 7:17 PM CST
Moon 12:59 AM CST 11:21 AM CST
Length of Visible Light 11h 10m
Length of Day
10h 13m
Waning Gibbous, 48% of the Moon is Illuminated
Feb 3
Waning Gibbous
Feb 10
New
Feb 17
First Quarter
Feb 25
Full
Mar 4
Last Quarter

Hourly Weather History & Observations

Time (CST) Temp. Windchill Dew Point Humidity Pressure Visibility Wind Dir Wind Speed Gust Speed Precip Events Conditions
12:15 AM 37.4 °F 28.5 °F 28.0 °F 69% 30.14 in 10.0 mi NW 15.0 mph - N/A   Scattered Clouds
12:35 AM 37.6 °F 27.7 °F 27.5 °F 67% 30.14 in 10.0 mi NW 18.4 mph 27.6 mph N/A   Overcast
12:55 AM 36.9 °F 25.1 °F 25.9 °F 64% 30.15 in 10.0 mi NNW 25.3 mph 31.1 mph N/A   Mostly Cloudy
1:15 AM 36.0 °F 26.0 °F 25.3 °F 65% 30.15 in 10.0 mi NNW 17.3 mph 29.9 mph N/A   Scattered Clouds
1:35 AM 35.1 °F 24.1 °F 23.7 °F 63% 30.16 in 10.0 mi NNW 19.6 mph 25.3 mph N/A   Clear
1:55 AM 34.5 °F 23.1 °F 23.7 °F 65% 30.16 in 10.0 mi NNW 20.7 mph 28.8 mph N/A   Clear
2:15 AM 34.0 °F 23.0 °F 24.1 °F 67% 30.18 in 10.0 mi NNW 18.4 mph 26.5 mph N/A   Clear
2:35 AM 33.8 °F 21.6 °F 23.4 °F 66% 30.19 in 10.0 mi NNW 23.0 mph 28.8 mph N/A   Clear
2:55 AM 32.7 °F 22.5 °F 23.4 °F 68% 30.19 in 10.0 mi NNW 15.0 mph 26.5 mph N/A   Clear
3:15 AM 32.0 °F 21.6 °F 23.7 °F 71% 30.20 in 10.0 mi NNW 15.0 mph 18.4 mph N/A   Scattered Clouds
3:55 AM 31.3 °F 20.7 °F 21.7 °F 68% 30.18 in 10.0 mi NW 15.0 mph 20.7 mph N/A   Scattered Clouds
4:15 AM 30.7 °F 20.0 °F 21.9 °F 70% 30.18 in 10.0 mi NW 15.0 mph - N/A   Scattered Clouds
4:35 AM 30.4 °F 19.5 °F 21.7 °F 70% 30.19 in 10.0 mi NNW 15.0 mph 20.7 mph N/A   Scattered Clouds
4:55 AM 30.0 °F 19.1 °F 21.0 °F 69% 30.20 in 10.0 mi NW 15.0 mph - N/A   Scattered Clouds
5:15 AM 29.3 °F 20.2 °F 20.3 °F 69% 30.21 in 10.0 mi NW 10.4 mph - N/A   Scattered Clouds
5:35 AM 28.8 °F 19.0 °F 20.3 °F 71% 30.20 in 10.0 mi NNW 11.5 mph - N/A   Scattered Clouds
6:15 AM 27.0 °F 18.7 °F 18.9 °F 72% 30.20 in 10.0 mi NNW 8.1 mph - N/A   Clear
6:35 AM 27.0 °F - 17.4 °F 67% 30.19 in 10.0 mi Calm Calm - N/A   Clear
6:55 AM 25.7 °F - 16.5 °F 68% 30.21 in 10.0 mi Calm Calm - N/A   Clear
7:15 AM 24.8 °F - 16.3 °F 70% 30.21 in 10.0 mi Calm Calm - N/A   Clear
7:35 AM 23.9 °F - 15.8 °F 71% 30.22 in 10.0 mi Calm Calm - N/A   Clear
7:55 AM 24.3 °F - 16.9 °F 73% 30.23 in 10.0 mi Calm Calm - N/A   Clear
8:15 AM 24.6 °F - 17.6 °F 75% 30.23 in 10.0 mi Calm Calm - N/A   Clear
8:35 AM 26.1 °F - 18.5 °F 73% 30.23 in 10.0 mi Calm Calm - N/A   Clear
8:55 AM 27.3 °F - 19.0 °F 71% 30.22 in 10.0 mi Calm Calm - N/A   Clear
9:15 AM 28.6 °F - 19.2 °F 68% 30.21 in 10.0 mi Calm Calm - N/A   Clear
9:35 AM 29.5 °F - 18.0 °F 62% 30.21 in 10.0 mi Calm Calm - N/A   Clear
9:55 AM 30.6 °F - 18.9 °F 62% 30.20 in 10.0 mi Calm Calm - N/A   Clear
10:15 AM 31.6 °F - 20.1 °F 62% 30.19 in 10.0 mi Calm Calm - N/A   Clear
10:35 AM 32.0 °F - 21.7 °F 66% 30.18 in 10.0 mi Calm Calm - N/A   Clear
10:55 AM 32.9 °F - 21.9 °F 64% 30.17 in 10.0 mi Calm Calm - N/A   Clear
11:15 AM 34.0 °F - 22.5 °F 63% 30.16 in 10.0 mi Calm Calm - N/A   Clear
11:35 AM 34.7 °F 28.8 °F 22.3 °F 61% 30.15 in 10.0 mi South 6.9 mph - N/A   Clear
11:55 AM 35.2 °F - 20.8 °F 56% 30.13 in 10.0 mi Calm Calm - N/A   Clear
12:15 PM 36.3 °F 28.4 °F 21.4 °F 55% 30.12 in 10.0 mi SSW 11.5 mph - N/A   Clear
12:35 PM 36.9 °F 29.1 °F 21.9 °F 55% 30.11 in 10.0 mi South 11.5 mph - N/A   Clear
12:55 PM 37.8 °F 30.2 °F 22.5 °F 54% 30.10 in 10.0 mi SSW 11.5 mph 18.4 mph N/A   Clear
1:15 PM 38.3 °F 29.7 °F 22.6 °F 53% 30.08 in 10.0 mi SSW 15.0 mph 20.7 mph N/A   Clear
1:35 PM 39.4 °F 31.1 °F 24.1 °F 54% 30.07 in 10.0 mi SSW 15.0 mph 20.7 mph N/A   Clear
1:55 PM 40.1 °F 31.3 °F 23.0 °F 51% 30.05 in 10.0 mi SSW 17.3 mph - N/A   Clear
2:15 PM 40.5 °F 32.5 °F 23.0 °F 50% 30.04 in 10.0 mi SSW 15.0 mph - N/A   Clear
2:35 PM 41.4 °F 33.6 °F 24.6 °F 51% 30.02 in 10.0 mi SSW 15.0 mph 20.7 mph N/A   Clear
2:55 PM 41.9 °F 34.6 °F 24.3 °F 50% 30.01 in 10.0 mi SSW 13.8 mph 18.4 mph N/A   Clear
3:15 PM 42.4 °F 38.1 °F 25.0 °F 50% 30.00 in 10.0 mi SSW 6.9 mph - N/A   Clear
3:35 PM 43.2 °F - 25.5 °F 50% 29.99 in 10.0 mi Calm Calm - N/A   Clear
3:55 PM 43.0 °F - 25.7 °F 51% 29.97 in 10.0 mi Calm Calm - N/A   Clear
4:15 PM 42.6 °F - 26.4 °F 53% 29.97 in 10.0 mi Calm Calm - N/A   Clear
4:35 PM 41.5 °F - 27.5 °F 57% 29.95 in 10.0 mi Calm Calm - N/A   Clear
4:55 PM 40.5 °F - 28.0 °F 61% 29.94 in 10.0 mi Calm Calm - N/A   Clear
5:15 PM 38.8 °F - 28.0 °F 65% 29.93 in 10.0 mi Calm Calm - N/A   Clear
5:35 PM 37.4 °F - 27.5 °F 67% 29.92 in 10.0 mi Calm Calm - N/A   Clear
5:55 PM 37.2 °F 31.9 °F 27.7 °F 68% 29.92 in 10.0 mi SSW 6.9 mph - N/A   Clear
6:15 PM 36.9 °F - 27.5 °F 69% 29.91 in 10.0 mi Calm Calm - N/A   Clear
6:35 PM 36.5 °F - 27.5 °F 70% 29.90 in 10.0 mi Calm Calm - N/A   Clear
6:55 PM 36.5 °F - 27.5 °F 70% 29.90 in 10.0 mi Calm Calm - N/A   Clear
7:15 PM 36.5 °F - 27.1 °F 69% 29.90 in 10.0 mi Calm Calm - N/A   Clear
7:35 PM 36.0 °F - 26.6 °F 69% 29.89 in 10.0 mi Calm Calm - N/A   Clear
7:55 PM 37.6 °F 31.0 °F 26.4 °F 64% 29.88 in 10.0 mi SSW 9.2 mph - N/A   Clear
8:15 PM 36.5 °F - 26.6 °F 67% 29.87 in 10.0 mi Calm Calm - N/A   Clear
8:35 PM 36.5 °F - 26.4 °F 67% 29.87 in 10.0 mi Calm Calm - N/A   Clear
8:55 PM 35.8 °F - 26.6 °F 69% 29.86 in 10.0 mi Calm Calm - N/A   Clear
9:15 PM 34.9 °F - 26.2 °F 71% 29.86 in 10.0 mi Calm Calm - N/A   Clear
9:35 PM 33.8 °F - 26.2 °F 74% 29.86 in 10.0 mi Calm Calm - N/A   Clear
9:55 PM 33.4 °F - 25.7 °F 73% 29.85 in 10.0 mi Calm Calm - N/A   Clear
10:15 PM 33.8 °F - 26.4 °F 74% 29.84 in 10.0 mi Calm Calm - N/A   Scattered Clouds
10:35 PM 34.7 °F - 26.4 °F 72% 29.83 in 10.0 mi Calm Calm - N/A   Scattered Clouds
10:55 PM 34.2 °F - 26.4 °F 73% 29.82 in 10.0 mi Calm Calm - N/A   Scattered Clouds
11:15 PM 34.5 °F - 26.6 °F 73% 29.81 in 10.0 mi Calm Calm - N/A   Clear
11:35 PM 34.0 °F 29.8 °F 26.6 °F 74% 29.81 in 10.0 mi SW 4.6 mph - N/A   Clear
11:55 PM 34.5 °F - 26.4 °F 72% 29.80 in 10.0 mi Calm Calm - N/A   Clear